Simultaneous Nadir Overpasses (SNOs) Predictions

Prediction of SNOs between LANDSAT-8 and METOP-B Satellite Orbit:

Table of predicted SNOs for the next 14.0 days since TLE Epoch: 10/5/2019
Index Date (LANDSAT-8) Time (LANDSAT-8) Lat,Lon (LANDSAT-8) SZA (LANDSAT-8 ) Date (METOP-B) Time (METOP-B) Lat,Lon (METOP-B) SZA (METOP-B ) Distance(km) Time Diff (sec)
1 10/05/2019 05:52:51 -81.19, -47.15 91.77 10/05/2019 05:52:44 -81.19, -47.04 91.76 1.89 7
2 10/05/2019 06:42:17 81.19, 120.57 88.26 10/05/2019 06:43:24 81.19, 120.41 88.27 2.78 67
3 10/08/2019 00:38:10 80.36,-158.63 87.65 10/08/2019 00:36:57 80.62,-159.82 87.73 36.34 73
4 10/08/2019 01:27:07 -81.18, 19.21 90.68 10/08/2019 01:27:06 -81.18, 19.19 90.69 0.45 1
5 10/08/2019 02:16:33 81.19,-173.09 89.34 10/08/2019 02:17:45 81.20,-173.01 89.39 1.71 72
6 10/10/2019 20:11:57 81.16, -82.47 90.32 10/10/2019 20:10:48 81.16, -82.45 90.30 0.56 69
7 10/10/2019 21:01:23 -81.18, 85.53 89.62 10/10/2019 21:01:28 -81.18, 85.40 89.63 2.23 5
8 10/13/2019 15:46:11 81.17, -15.82 91.42 10/13/2019 15:45:08 81.16, -15.88 91.39 1.16 63
9 10/13/2019 16:35:37 -81.19, 152.19 88.51 10/13/2019 16:35:47 -81.19, 152.36 88.49 2.89 10
10 10/16/2019 11:20:27 81.16, 50.43 92.45 10/16/2019 11:19:30 81.16, 50.29 92.41 2.31 57




NCC Satellite Simultaneous Nadir Overpasses (SNOs) Prediction Service
